DAL2282 KSLC-KJAC

Flight info

Callsign DAL2282
Flight time 0h 33m
Altitude 29000
Route RUGGD3 HOLTR ELLKK MOSSS
Aircraft A321/M-SDE3FGHIRWY/LB1

Departure

Time 2026-05-07 11:38
Airport Salt Lake City International Airport (KSLC)

Arrival

Time 2026-05-07 12:11
Airport Jackson Hole Airport (KJAC)
Time Latitude Longitude Altitude Speed Heading
2026-05-07 11:04 40.78584 -111.99118 4232 ft 0 kts 175°
2026-05-07 11:21 40.78588 -111.99118 4232 ft 3 kts 175°
2026-05-07 11:21 40.78614 -111.99121 4232 ft 4 kts 175°
2026-05-07 11:21 40.78638 -111.99124 4231 ft 4 kts 180°
2026-05-07 11:22 40.78659 -111.99116 4232 ft 4 kts 240°
2026-05-07 11:22 40.78666 -111.99085 4232 ft 2 kts 265°
2026-05-07 11:22 40.78666 -111.99078 4232 ft 0 kts 265°
2026-05-07 11:31 40.78666 -111.99088 4232 ft 6 kts 267°
2026-05-07 11:31 40.78658 -111.99210 4233 ft 18 kts 264°
2026-05-07 11:31 40.78647 -111.99373 4232 ft 17 kts 265°
2026-05-07 11:32 40.78767 -111.99478 4236 ft 15 kts 355°
2026-05-07 11:32 40.78893 -111.99494 4235 ft 20 kts 355°
2026-05-07 11:32 40.79028 -111.99509 4233 ft 19 kts 355°
2026-05-07 11:33 40.79190 -111.99528 4232 ft 28 kts 354°
2026-05-07 11:33 40.79387 -111.99551 4226 ft 29 kts 355°
2026-05-07 11:33 40.79583 -111.99574 4225 ft 28 kts 354°
2026-05-07 11:33 40.79768 -111.99597 4227 ft 25 kts 355°
2026-05-07 11:34 40.79938 -111.99615 4229 ft 24 kts 355°
2026-05-07 11:34 40.80092 -111.99633 4233 ft 20 kts 355°
2026-05-07 11:34 40.80224 -111.99646 4232 ft 19 kts 355°
2026-05-07 11:34 40.80352 -111.99659 4231 ft 18 kts 355°
2026-05-07 11:35 40.80465 -111.99671 4232 ft 15 kts 355°
2026-05-07 11:35 40.80567 -111.99688 4229 ft 15 kts 354°
2026-05-07 11:35 40.80679 -111.99702 4224 ft 17 kts 355°
2026-05-07 11:35 40.80772 -111.99750 4224 ft 13 kts 289°
2026-05-07 11:36 40.80770 -111.99787 4224 ft 0 kts 264°
2026-05-07 11:36 40.80769 -111.99807 4225 ft 10 kts 264°
2026-05-07 11:36 40.80727 -111.99916 4227 ft 14 kts 199°
2026-05-07 11:37 40.80698 -111.99917 4228 ft 0 kts 176°
2026-05-07 11:37 40.80669 -111.99915 4228 ft 21 kts 176°
2026-05-07 11:38 40.80276 -111.99869 4233 ft 89 kts 174°
2026-05-07 11:38 40.79467 -111.99775 4226 ft 142 kts 175°
2026-05-07 11:38 40.78342 -111.99628 4287 ft 179 kts 173°
2026-05-07 11:38 40.77112 -111.99493 4972 ft 176 kts 174°
2026-05-07 11:39 40.75891 -111.99511 5635 ft 178 kts 197°
2026-05-07 11:39 40.74865 -112.00459 6050 ft 194 kts 232°
2026-05-07 11:39 40.74428 -112.02227 6195 ft 219 kts 266°
2026-05-07 11:39 40.74865 -112.04240 6337 ft 242 kts 301°
2026-05-07 11:40 40.76128 -112.05790 6468 ft 261 kts 334°
2026-05-07 11:40 40.77901 -112.06525 6802 ft 272 kts 343°
2026-05-07 11:40 40.79827 -112.07000 7143 ft 289 kts 350°
2026-05-07 11:40 40.81813 -112.07428 7946 ft 287 kts 350°
2026-05-07 11:41 40.83785 -112.07754 8859 ft 285 kts 356°
2026-05-07 11:41 40.85757 -112.07422 9686 ft 288 kts
2026-05-07 11:41 40.87701 -112.06847 10244 ft 298 kts
2026-05-07 11:41 40.89800 -112.06223 10394 ft 321 kts
2026-05-07 11:42 40.92053 -112.05550 10511 ft 343 kts
2026-05-07 11:42 40.94442 -112.04830 10764 ft 358 kts 10°
2026-05-07 11:42 40.96892 -112.04083 11341 ft 363 kts 10°
2026-05-07 11:42 40.99358 -112.03326 12035 ft 365 kts 10°
2026-05-07 11:43 41.01776 -112.02221 12714 ft 372 kts 22°
2026-05-07 11:43 41.03988 -112.00378 13400 ft 381 kts 34°
2026-05-07 11:43 41.05865 -111.97851 14038 ft 391 kts 48°
2026-05-07 11:43 41.07282 -111.94733 14604 ft 400 kts 60°
2026-05-07 11:44 41.08461 -111.91374 15165 ft 403 kts 61°
2026-05-07 11:44 41.09643 -111.87992 15742 ft 406 kts 61°
2026-05-07 11:44 41.10861 -111.84592 16305 ft 408 kts 57°
2026-05-07 11:44 41.12436 -111.81487 16782 ft 405 kts 44°
2026-05-07 11:45 41.14434 -111.78889 17331 ft 400 kts 33°
2026-05-07 11:45 41.16746 -111.76879 17877 ft 395 kts 22°
2026-05-07 11:45 41.19273 -111.75514 18405 ft 391 kts 11°
2026-05-07 11:45 41.21923 -111.74770 18864 ft 390 kts
2026-05-07 11:46 41.24604 -111.74147 19342 ft 392 kts
2026-05-07 11:46 41.27258 -111.73527 19788 ft 394 kts
2026-05-07 11:46 41.29966 -111.72887 20225 ft 396 kts
2026-05-07 11:46 41.32692 -111.72241 20672 ft 399 kts
2026-05-07 11:47 41.35428 -111.71589 21098 ft 399 kts
2026-05-07 11:47 41.38167 -111.70934 21483 ft 402 kts
2026-05-07 11:47 41.40904 -111.69998 21871 ft 409 kts 11°
2026-05-07 11:47 41.43640 -111.68927 22283 ft 411 kts 11°
2026-05-07 11:48 41.46394 -111.67845 22706 ft 414 kts 11°
2026-05-07 11:48 41.49169 -111.66755 23159 ft 417 kts 11°
2026-05-07 11:48 41.51953 -111.65662 23601 ft 419 kts 11°
2026-05-07 11:48 41.54761 -111.64562 23962 ft 421 kts 11°
2026-05-07 11:49 41.57582 -111.63465 24328 ft 423 kts 11°
2026-05-07 11:49 41.60416 -111.62357 24689 ft 425 kts 11°
2026-05-07 11:49 41.63263 -111.61240 25029 ft 428 kts 11°
2026-05-07 11:49 41.66123 -111.60113 25372 ft 429 kts 11°
2026-05-07 11:50 41.68993 -111.58983 25722 ft 431 kts 11°
2026-05-07 11:50 41.71880 -111.57843 26044 ft 433 kts 11°
2026-05-07 11:50 41.74776 -111.56700 26364 ft 435 kts 11°
2026-05-07 11:50 41.77680 -111.55552 26675 ft 436 kts 11°
2026-05-07 11:51 41.80613 -111.54553 26982 ft 433 kts
2026-05-07 11:51 41.83586 -111.53871 27320 ft 435 kts
2026-05-07 11:51 41.86538 -111.53207 27635 ft 437 kts
2026-05-07 11:51 41.89539 -111.52528 27955 ft 438 kts
2026-05-07 11:52 41.92554 -111.51841 28255 ft 440 kts
2026-05-07 11:52 41.95567 -111.51153 28655 ft 439 kts
2026-05-07 11:52 41.98574 -111.50469 28997 ft 438 kts
2026-05-07 11:53 42.04472 -111.49123 29062 ft 424 kts
2026-05-07 11:53 42.10270 -111.47808 29064 ft 422 kts
2026-05-07 11:54 42.16061 -111.46501 29060 ft 421 kts
2026-05-07 11:54 42.21810 -111.45196 29063 ft 420 kts
2026-05-07 11:55 42.27578 -111.43874 29066 ft 420 kts
2026-05-07 11:55 42.33245 -111.41723 29063 ft 427 kts 14°
2026-05-07 11:56 42.38829 -111.38947 29071 ft 427 kts 14°
2026-05-07 11:56 42.44410 -111.36174 28836 ft 428 kts 14°
2026-05-07 11:56 42.47198 -111.34789 28441 ft 425 kts 14°
2026-05-07 11:57 42.49963 -111.33412 27819 ft 421 kts 14°
2026-05-07 11:57 42.52704 -111.32047 27204 ft 418 kts 14°
2026-05-07 11:57 42.55425 -111.30690 26589 ft 416 kts 14°
2026-05-07 11:57 42.58134 -111.29339 25961 ft 414 kts 14°
2026-05-07 11:58 42.60836 -111.27989 25320 ft 413 kts 14°
2026-05-07 11:58 42.63501 -111.26658 24673 ft 414 kts 14°
2026-05-07 11:58 42.66235 -111.25290 24021 ft 413 kts 14°
2026-05-07 11:58 42.68896 -111.23952 23346 ft 413 kts 14°
2026-05-07 11:59 42.71574 -111.22605 22718 ft 408 kts 14°
2026-05-07 11:59 42.74218 -111.21275 22132 ft 403 kts 14°
2026-05-07 11:59 42.76839 -111.19958 21566 ft 400 kts 14°
2026-05-07 11:59 42.79438 -111.18653 20986 ft 396 kts 14°
2026-05-07 12:00 42.82015 -111.17356 20430 ft 393 kts 14°
2026-05-07 12:00 42.84570 -111.16070 19877 ft 390 kts 14°
2026-05-07 12:00 42.87107 -111.14788 19339 ft 387 kts 14°
2026-05-07 12:00 42.89633 -111.13509 18679 ft 387 kts 14°
2026-05-07 12:01 42.92126 -111.12149 18115 ft 387 kts 20°
2026-05-07 12:01 42.94469 -111.10337 17591 ft 387 kts 25°
2026-05-07 12:01 42.96758 -111.08423 17112 ft 384 kts 25°
2026-05-07 12:01 42.99033 -111.06525 16640 ft 382 kts 25°
2026-05-07 12:02 43.01297 -111.04638 16187 ft 380 kts 25°
2026-05-07 12:02 43.03487 -111.02809 16033 ft 367 kts 25°
2026-05-07 12:02 43.05626 -111.01014 15905 ft 354 kts 25°
2026-05-07 12:02 43.07716 -110.99429 15743 ft 329 kts 18°
2026-05-07 12:03 43.09784 -110.98348 15204 ft 312 kts 13°
2026-05-07 12:03 43.11818 -110.97382 14475 ft 308 kts 13°
2026-05-07 12:03 43.13850 -110.96426 14124 ft 308 kts 13°
2026-05-07 12:03 43.15877 -110.95468 13712 ft 307 kts 13°
2026-05-07 12:04 43.17889 -110.94511 13350 ft 306 kts 13°
2026-05-07 12:04 43.19888 -110.93554 13030 ft 302 kts 13°
2026-05-07 12:04 43.21850 -110.92609 12751 ft 298 kts 13°
2026-05-07 12:04 43.23803 -110.91668 12450 ft 295 kts 14°
2026-05-07 12:05 43.25715 -110.90741 12167 ft 289 kts 14°
2026-05-07 12:05 43.27597 -110.89831 11874 ft 284 kts 14°
2026-05-07 12:05 43.29448 -110.88934 11602 ft 280 kts 14°
2026-05-07 12:05 43.31267 -110.88052 11321 ft 274 kts 14°
2026-05-07 12:06 43.33057 -110.87187 11069 ft 269 kts 14°
2026-05-07 12:06 43.34772 -110.86358 10791 ft 261 kts 14°
2026-05-07 12:06 43.36463 -110.85542 10540 ft 255 kts 14°
2026-05-07 12:06 43.38130 -110.84740 10288 ft 253 kts 15°
2026-05-07 12:07 43.39790 -110.83939 10030 ft 252 kts 15°
2026-05-07 12:07 43.41438 -110.83142 9774 ft 250 kts 15°
2026-05-07 12:07 43.43035 -110.82365 9539 ft 236 kts 15°
2026-05-07 12:07 43.44534 -110.81634 9286 ft 222 kts 15°
2026-05-07 12:08 43.45947 -110.80945 9075 ft 210 kts 14°
2026-05-07 12:08 43.47274 -110.80297 8890 ft 196 kts 15°
2026-05-07 12:08 43.48529 -110.79690 8676 ft 189 kts 13°
2026-05-07 12:08 43.49716 -110.79114 8504 ft 174 kts 14°
2026-05-07 12:09 43.50833 -110.78575 8259 ft 166 kts 16°
2026-05-07 12:09 43.51893 -110.78062 8039 ft 161 kts 18°
2026-05-07 12:09 43.52943 -110.77556 7825 ft 159 kts 19°
2026-05-07 12:09 43.53987 -110.77052 7634 ft 160 kts 18°
2026-05-07 12:10 43.55042 -110.76542 7430 ft 162 kts 18°
2026-05-07 12:10 43.56116 -110.76021 7210 ft 164 kts 19°
2026-05-07 12:10 43.57198 -110.75494 6989 ft 165 kts 18°
2026-05-07 12:10 43.58280 -110.74975 6793 ft 165 kts 18°
2026-05-07 12:11 43.59359 -110.74451 6604 ft 165 kts 19°
2026-05-07 12:11 43.60415 -110.73937 6445 ft 153 kts 17°
2026-05-07 12:11 43.61203 -110.73563 6442 ft 70 kts 21°
2026-05-07 12:11 43.61500 -110.73407 6450 ft 19 kts 27°
2026-05-07 12:12 43.61511 -110.73286 6446 ft 12 kts 126°
2026-05-07 12:12 43.61450 -110.73269 6450 ft 9 kts 197°
2026-05-07 12:12 43.61376 -110.73305 6451 ft 12 kts 199°
2026-05-07 12:12 43.61295 -110.73343 6447 ft 12 kts 199°
2026-05-07 12:13 43.61205 -110.73386 6447 ft 19 kts 199°
2026-05-07 12:13 43.61057 -110.73459 6443 ft 24 kts 199°
2026-05-07 12:13 43.60903 -110.73533 6444 ft 23 kts 199°
2026-05-07 12:13 43.60750 -110.73608 6440 ft 23 kts 199°
2026-05-07 12:14 43.60596 -110.73684 6436 ft 24 kts 200°
2026-05-07 12:14 43.60455 -110.73755 6433 ft 17 kts 201°
2026-05-07 12:14 43.60397 -110.73729 6432 ft 8 kts 121°
2026-05-07 12:14 43.60390 -110.73699 6432 ft 0 kts 109°
2026-05-07 12:19 43.59957 -110.73869 6419 ft 0 kts 110°